Weather History for Elmendorf AFB, AK

Change the Weather History Date:

Thursday, November 22, 2012

  Actual Average Record
Temperature  
Mean Temperature 7 °F -  
Max Temperature 14 °F 27 °F 50 °F (1992)
Min Temperature 0 °F 15 °F -11 °F (1963)
Degree Days  
Heating Degree Days 58    
Moisture  
Dew Point 0 °F    
Average Humidity 70    
Maximum Humidity 81    
Minimum Humidity 57    
Precipitation  
Precipitation 0.00 in - - ()
Snow  
Snow 0.00 in - - ()
Snow Depth 2.00 in    
Sea Level Pressure  
Sea Level Pressure 29.69 in    
Wind  
Wind Speed 6 mph (East)    
Max Wind Speed 12 mph    
Max Gust Speed -    
Visibility 10 miles    
Events      
Averages and records for this station are not official NWS values.
T = Trace of Precipitation, MM = Missing Value Source: NWS Daily Summary

Daily Weather History Graph

Daily Weather History Graph

Search for Another Location

Airport:

Trip Planner

Search our weather history database for the weather conditions in past years. The results will help you decide how hot, cold, wet, or windy it might be!

Date:

Astronomy

Nov. 22, 2012 Rise Set
Actual Time 9:25 AM AKST 4:04 PM AKST
Civil Twilight 8:30 AM AKST 4:59 PM AKST
Nautical Twilight 7:34 AM AKST 5:55 PM AKST
Astronomical Twilight 6:43 AM AKST 6:47 PM AKST
Moon 2:13 PM AKST (11/22) 2:28 AM AKST (11/22)
Length of Visible Light 8h 28m
Length of Day
6h 39m
Waxing Gibbous, 72% of the Moon is Illuminated
Nov 22
Waxing Gibbous
Nov 28
Full
Dec 6
Last Quarter
Dec 12
New
Dec 19
First Quarter

Hourly Weather History & Observations

Time (AKST) Temp. Windchill Dew Point Humidity Pressure Visibility Wind Dir Wind Speed Gust Speed Precip Events Conditions
12:55 AM 3.9 °F -5.3 °F -0.8 °F 81% 29.85 in 10.0 mi East 4.6 mph - N/A   Clear
1:55 AM 5.4 °F -7.6 °F -0.9 °F 75% 29.85 in 10.0 mi ENE 8.1 mph - N/A   Clear
2:55 AM 8.6 °F -2.6 °F -0.0 °F 68% 29.86 in 10.0 mi East 6.9 mph - N/A   Clear
3:55 AM 9.9 °F -4.7 °F 0.5 °F 66% 29.86 in 10.0 mi ENE 11.5 mph - N/A   Clear
4:55 AM 9.9 °F -2.2 °F 0.7 °F 66% 29.85 in 10.0 mi East 8.1 mph - N/A   Clear
5:55 AM 9.9 °F -2.2 °F 1.2 °F 68% 29.85 in 10.0 mi ENE 8.1 mph - N/A   Clear
6:55 AM 9.9 °F -2.2 °F 1.4 °F 69% 29.84 in 10.0 mi NE 8.1 mph - N/A   Clear
7:55 AM 9.9 °F 0.2 °F 1.4 °F 69% 29.83 in 10.0 mi Variable 5.8 mph - N/A   Clear
8:55 AM 9.9 °F -2.2 °F 0.7 °F 66% 29.82 in 10.0 mi East 8.1 mph - N/A   Clear
9:55 AM 3.6 °F -5.7 °F -2.0 °F 78% 29.81 in 10.0 mi East 4.6 mph - N/A   Clear
10:55 AM 11.7 °F 0.0 °F 1.8 °F 65% 29.79 in 10.0 mi ENE 8.1 mph - N/A   Clear
11:55 AM 12.4 °F 0.9 °F 0.9 °F 60% 29.75 in 10.0 mi ENE 8.1 mph - N/A   Clear
12:55 PM 14.2 °F 1.4 °F 1.6 °F 57% 29.72 in 10.0 mi ENE 10.4 mph - N/A   Clear
1:55 PM 14.5 °F 4.6 °F 2.7 °F 59% 29.68 in 10.0 mi ENE 6.9 mph - N/A   Clear
2:55 PM 13.8 °F 3.7 °F 2.7 °F 61% 29.64 in 10.0 mi ESE 6.9 mph - N/A   Clear
3:55 PM 10.4 °F -1.5 °F 1.6 °F 68% 29.60 in 10.0 mi East 8.1 mph - N/A   Clear
4:55 PM 9.0 °F 0.6 °F 0.7 °F 69% 29.56 in 10.0 mi ESE 4.6 mph - N/A   Clear
5:55 PM 4.3 °F -4.9 °F -1.5 °F 77% 29.54 in 10.0 mi East 4.6 mph - N/A   Clear
6:55 PM 3.4 °F -5.9 °F -2.4 °F 77% 29.50 in 10.0 mi East 4.6 mph - N/A   Clear
7:55 PM 3.0 °F -6.4 °F -2.6 °F 78% 29.48 in 10.0 mi East 4.6 mph - N/A   Clear
8:55 PM 3.9 °F - -2.9 °F 73% 29.47 in 10.0 mi Calm Calm - N/A   Clear
9:55 PM -0.4 °F - -6.2 °F 77% 29.46 in 10.0 mi Calm Calm - N/A   Clear
10:55 PM 0.9 °F - -4.2 °F 79% 29.47 in 10.0 mi Calm Calm - N/A   Scattered Clouds
11:55 PM 4.1 °F -5.1 °F -1.5 °F 78% 29.47 in 10.0 mi East 4.6 mph - N/A   Mostly Cloudy